Dalhart, TX

11:28 PM CST on January 20, 2018 (GMT -0600)
Dalhart Municipal

Weather History for KDHT - December, 2011

Change the Weather History Date:

Thursday, December 29, 2011

  Actual Average Record
Temperature  
Mean Temperature 41 °F 34 °F  
Max Temperature 55 °F 48 °F 81 °F (2017)
Min Temperature 27 °F 19 °F -5 °F (1983)
Degree Days  
Heating Degree Days 24 31  
Month to date heating degree days 986 881  
Since 1 July heating degree days 1838 1876  
Cooling Degree Days 0 0  
Month to date cooling degree days 0 0  
Year to date cooling degree days 1788 1138  
Moisture  
Dew Point 30 °F    
Average Humidity 69    
Maximum Humidity 85    
Minimum Humidity 53    
Precipitation  
Precipitation 0.00 in 0.02 in 0.64 in (2006)
Month to date precipitation 0.93 0.51  
Year to date precipitation 6.04 17.56  
Snow  
Snow 0.00 in 0.10 in 6.00 in (1958)
Month to date snowfall 8.3 4.0  
Since 1 July snowfall 8.3 5.9  
Snow Depth 1.00 in    
Sea Level Pressure  
Sea Level Pressure 29.90 in    
Wind  
Wind Speed 9 mph (West)    
Max Wind Speed 16 mph    
Max Gust Speed 21 mph    
Visibility 10 miles    
Events      
T = Trace of Precipitation, MM = Missing Value Source: NWS Daily Summary

Daily Weather History Graph

Daily Weather History Graph

Search for Another Location

Airport or City:

Trip Planner

Search our weather history database for the weather conditions in past years. The results will help you decide how hot, cold, wet, or windy it might be!

Date:

Astronomy

Dec. 29, 2011 Rise Set
Actual Time 8:00 AM CST 5:44 PM CST
Civil Twilight 7:31 AM CST 6:12 PM CST
Nautical Twilight 6:59 AM CST 6:45 PM CST
Astronomical Twilight 6:28 AM CST 7:16 PM CST
Moon 11:04 AM CST (12/29) 11:12 PM CST (12/29)
Length of Visible Light 10h 41m
Length of Day
9h 44m
Waxing Crescent, 27% of the Moon is Illuminated
Dec 29
Waxing Crescent
Jan 1
First Quarter
Jan 9
Full
Jan 16
Last Quarter
Jan 23
New

Hourly Weather History & Observations

Time (CST) Temp. Windchill Dew Point Humidity Pressure Visibility Wind Dir Wind Speed Gust Speed Precip Events Conditions
12:53 AM 35.1 °F 27.4 °F 26.1 °F 70% 30.00 in 10.0 mi WNW 10.4 mph - N/A   Clear
1:53 AM 34.0 °F 25.0 °F 26.1 °F 73% 30.00 in 10.0 mi WNW 12.7 mph - N/A   Clear
2:53 AM 34.0 °F 26.0 °F 26.1 °F 73% 30.00 in 10.0 mi WNW 10.4 mph - N/A   Clear
3:53 AM 35.1 °F 26.9 °F 26.1 °F 70% 29.99 in 10.0 mi WNW 11.5 mph - N/A   Clear
4:53 AM 34.0 °F 25.5 °F 26.1 °F 73% 29.99 in 10.0 mi WNW 11.5 mph - N/A   Clear
5:53 AM 33.1 °F 24.9 °F 25.0 °F 72% 29.98 in 10.0 mi WNW 10.4 mph - N/A   Clear
6:53 AM 32.0 °F 28.7 °F 25.0 °F 75% 29.98 in 10.0 mi NW 3.5 mph - N/A   Clear
7:53 AM 28.9 °F 25.2 °F 24.1 °F 82% 29.97 in 10.0 mi SSW 3.5 mph - N/A   Clear
8:53 AM 32.0 °F - 24.8 °F 75% 29.94 in 10.0 mi Calm Calm - N/A   Clear
9:53 AM 39.0 °F 33.4 °F 28.9 °F 67% 29.92 in 10.0 mi SSW 8.1 mph - N/A   Clear
10:53 AM 46.9 °F - 30.9 °F 54% 29.91 in 10.0 mi West 4.6 mph - N/A   Clear
11:53 AM 48.9 °F - 34.0 °F 56% 29.86 in 10.0 mi SSW 10.4 mph - N/A   Clear
12:53 PM 51.1 °F - 36.0 °F 56% 29.82 in 10.0 mi SW 10.4 mph - N/A   Clear
1:53 PM 53.1 °F - 37.0 °F 55% 29.78 in 10.0 mi SW 10.4 mph - N/A   Clear
2:53 PM 48.9 °F - 36.0 °F 61% 29.78 in 10.0 mi WSW 13.8 mph - N/A   Clear
3:53 PM 51.1 °F - 35.1 °F 54% 29.79 in 10.0 mi West 5.8 mph - N/A   Clear
4:53 PM 46.9 °F - 35.1 °F 63% 29.80 in 10.0 mi SW 6.9 mph - N/A   Clear
5:53 PM 41.0 °F 34.3 °F 34.0 °F 76% 29.81 in 10.0 mi WSW 11.5 mph - N/A   Clear
6:53 PM 41.0 °F 37.1 °F 33.1 °F 73% 29.85 in 10.0 mi WNW 5.8 mph - N/A   Clear
7:53 PM 37.0 °F 30.4 °F 30.9 °F 79% 29.89 in 10.0 mi West 9.2 mph - N/A   Clear
8:53 PM 42.1 °F 33.9 °F 30.9 °F 65% 29.88 in 10.0 mi WNW 17.3 mph - N/A   Clear
9:53 PM 39.2 °F 32.0 °F 30.2 °F 70% 29.91 in 10.0 mi WSW 11.5 mph - N/A   Clear
10:53 PM 44.1 °F 41.5 °F 30.0 °F 58% 29.89 in 10.0 mi NW 4.6 mph - N/A   Clear
11:53 PM 45.0 °F 38.9 °F 30.0 °F 56% 29.91 in 10.0 mi North 12.7 mph - N/A   Clear